Regional Weather Roundup
Issued by NWS Boston, MA

Home | Current Version | Previous Version | Text Only | Print | Product List | Glossary On
Versions: 1 2 3 4 5 6 7 8 9 10 11 12 13 14 15 16 17 18 19 20 21 22 23 24 25 26 27
000
ASUS41 KBOX 301210
RWRBOX

REGIONAL WEATHER ROUNDUP
NATIONAL WEATHER SERVICE TAUNTON MA
800 AM EDT SUN APR 30 2017

NOTE:  "FAIR" INDICATES FEW OR NO CLOUDS BELOW 12,000 FEET WITH NO
SIGNIFICANT WEATHER AND/OR OBSTRUCTIONS TO VISIBILITY.

MAZALL-301300-
EASTERN MASSACHUSETTS

CITY           SKY/WX    TMP DP  RH WIND       PRES   REMARKS
BOSTON         MOSUNNY   51  29  42 N9        30.28R
6HR MIN TEMP:  50; 6HR MAX TEMP:  62;

BEVERLY        SUNNY     50  29  44 N5        30.28R
LAWRENCE       SUNNY     48  26  42 VRB7      30.31R
BEDFORD        MOSUNNY   49  25  39 N10       30.28R
BLUE HILL        N/A     50  26  39 NW9       30.25R
NORWOOD        SUNNY     53  30  41 N7        30.27R
MARSHFIELD     SUNNY     50  34  53 NE10G17   30.28R
PLYMOUTH       SUNNY     49  36  61 NE17G25   30.28R
TAUNTON        SUNNY     54  30  40 N9        30.27R
NEW BEDFORD    SUNNY     55  39  54 N10G18    30.24R
$$

MAZALL-301300-
CAPE COD AND THE ISLANDS

CITY           SKY/WX    TMP DP  RH WIND       PRES   REMARKS
FALMOUTH       SUNNY     50  34  53 MISG      30.28R
HYANNIS        SUNNY     51  36  56 N17G24    30.26R
CHATHAM        SUNNY     49  37  63 NE10G24   30.28R
PROVINCETOWN   SUNNY     48  36  63 NE15G21   30.29R
NANTUCKET      SUNNY     51  36  56 N22G31    30.24R
MARTHAS VNYRD  SUNNY     54  35  48 NE20G29   30.25R
$$

MAZALL-301300-
CENTRAL AND WESTERN MASSACHUSETTS

CITY           SKY/WX    TMP DP  RH WIND       PRES   REMARKS
WORCESTER      SUNNY     48  26  42 VRB3      30.26R
6HR MIN TEMP:  47; 6HR MAX TEMP:  54;

FITCHBURG      SUNNY     50  29  44 N6        30.29R
ORANGE         PTSUNNY   46  26  45 N10       30.28R
SPRINGFIELD    MOSUNNY   51  31  45 N12       30.26R
WESTFIELD      MOSUNNY   51  32  48 NE10      30.27R
NORTH ADAMS    CLOUDY    44  29  55 W8        30.28R
PITTSFIELD     MOSUNNY   47  31  53 CALM      30.25R
$$

RIZALL-301300-
RHODE ISLAND

CITY           SKY/WX    TMP DP  RH WIND       PRES   REMARKS
PROVIDENCE     MOSUNNY   57  37  47 NE14      30.26R
6HR MIN TEMP:  55; 6HR MAX TEMP:  63;

NEWPORT        SUNNY     57  40  52 N10       30.24R
BLOCK ISLAND   SUNNY     56  44  64 NE10      30.26R
SMITHFIELD     SUNNY     53  34  48 NE10      30.27R
WESTERLY       SUNNY     60  40  47 NE8       30.25R
$$

CTZALL-301300-
CONNECTICUT

CITY           SKY/WX    TMP DP  RH WIND       PRES   REMARKS
BRADLEY INTL   MOSUNNY   52  31  44 N15       30.26R
6HR MIN TEMP:  49; 6HR MAX TEMP:  57;

HARTFORD       SUNNY     54  34  46 N13       30.25R
BRIDGEPORT     SUNNY     59  38  45 NE7       30.24R
DANBURY        PTSUNNY   53  38  56 NE6       30.25R
GROTON         SUNNY     59  40  49 NE12      30.23R
NEW HAVEN      MOSUNNY   56  38  50 N10       30.24R
CHESTER        FAIR      55  37  50 NE8       30.24R
MERIDEN        SUNNY     57  36  45 NE9       30.25R
WILLIMANTIC    SUNNY     58  37  45 NE12      30.25S
OXFORD         MOSUNNY   52  34  50 NE12      30.24R
$$

MEZ002-015-021-024-NHZ003-005-008-011-012-014-VTZ005-008-301300-
NORTHERN NEW ENGLAND

CITY           SKY/WX    TMP DP  RH WIND       PRES   REMARKS
PORTLAND ME    MOSUNNY   45  25  45 N15       30.29R
6HR MIN TEMP:  41; 6HR MAX TEMP:  50;

BANGOR ME      MOSUNNY   41  24  51 N25       30.25S WCI  31
CONCORD NH     SUNNY     45  25  45 NW13      30.28R
MANCHESTER NH  MOSUNNY   47  22  37 NW9       30.28R
NASHUA NH      SUNNY     46  27  46 N9          N/A
PORTSMOUTH NH  MOSUNNY   48  26  42 NE5       30.28R
JAFFREY NH     CLOUDY    46  27  47 VRB7      30.28R
KEENE NH       MOSUNNY   44  25  47 N9        30.31R
BURLINGTON VT  MOSUNNY   42  25  50 N7        30.32F
MT. WASHINGTON MOSUNNY   34  23  64 NW47        N/A  WCI  17
$$

NYZ052-076-301300-
EASTERN NEW YORK

CITY           SKY/WX    TMP DP  RH WIND       PRES   REMARKS
ALBANY         CLOUDY    44  26  49 N9        30.32R
6HR MIN TEMP:  42; 6HR MAX TEMP:  50;

NEW YORK CITY  CLOUDY    60  38  43 NE10      30.23R
6HR MIN TEMP:  60; 6HR MAX TEMP:  68;

$$

ANZALL-301300-
MARINE OBSERVATIONS

STATION/POSITION TIME  TEMP    WIND        PRES    VSBY  WAVE
                       AIR SEA DIR/SP/G                  HT/PER
                 (UTC) (F)     (DEG/KT/KT) (MB)    (MI)  (FT/S)
BOSTON BUOY      1050   49 47  350/ 10/ 12 1023.5          2/ 3
BUZZARDS BAY     1100           60/ 17/ 19 1023.8R
NANTUCKET SOUND  1150      47              1024.4R         2/ 4
MASS BAY-STELLWA 1104   47 47   20/ 14/ 17 1024.3R
ISLE OF SHOALS   1100   44      20/ 14/ 17 1024.3R
S OF BLOCK IS    1155      48                N/A           3/ 7
$$

......................KEY.........................
  SKY/WX - SKY CONDITION/PRESENT WEATHER
  TMP    - TEMPERATURE IN FAHRENHEIT
  DWPT   - DEWPOINT IN FAHRENHEIT
  RH     - RELATIVE HUMIDITY IN PERCENT
  WIND   - DIRECTION AND SPEED IN MPH
  PRES   - MEAN SEA LEVEL PRESSURE IN INCHES OF HG
  WCI    - WIND CHILL INDEX
  VSB    - VISIBILITY IN MILES
  HX     - HEAT INDEX
  TC     - TEMPERATURE IN CELSIUS
  VRB    - VARIABLE WIND DIRECTION
  N/A    - NOT AVAILABLE




USA.gov is the U.S. government's official web portal to all federal, state and local government web resources and services.